ASA531 KLAX-KPDX

Flight info

Callsign ASA531
Flight time N/A
Altitude 32000
Route LADYJ4 CSTRO SHIMR LMT MOXEE TMBRS4
Aircraft B739/M-SDE2E3FGHIRWXY/LB1

Departure

Time 2026-05-08 06:42
Airport Los Angeles International Airport (KLAX)

Arrival

Time N/A
Airport Portland International Airport (KPDX)
Time Latitude Longitude Altitude Speed Heading
2026-05-08 06:24 33.94102 -118.40130 125 ft 0 kts 266°
2026-05-08 06:31 33.94103 -118.40114 119 ft 2 kts 266°
2026-05-08 06:32 33.94104 -118.40094 121 ft 2 kts 266°
2026-05-08 06:32 33.94105 -118.40075 119 ft 2 kts 255°
2026-05-08 06:32 33.94112 -118.40057 122 ft 2 kts 203°
2026-05-08 06:32 33.94121 -118.40055 121 ft 1 kts 170°
2026-05-08 06:33 33.94125 -118.40056 120 ft 0 kts 168°
2026-05-08 06:34 33.94122 -118.40055 121 ft 1 kts 168°
2026-05-08 06:34 33.94114 -118.40053 120 ft 0 kts 170°
2026-05-08 06:35 33.94101 -118.40050 124 ft 3 kts 170°
2026-05-08 06:35 33.94064 -118.40049 122 ft 8 kts 182°
2026-05-08 06:35 33.93998 -118.40053 123 ft 12 kts 182°
2026-05-08 06:35 33.93928 -118.40046 122 ft 9 kts 161°
2026-05-08 06:36 33.93888 -118.39992 125 ft 9 kts 108°
2026-05-08 06:36 33.93888 -118.39919 125 ft 9 kts 84°
2026-05-08 06:36 33.93895 -118.39847 125 ft 9 kts 83°
2026-05-08 06:36 33.93904 -118.39765 123 ft 11 kts 81°
2026-05-08 06:37 33.93912 -118.39704 122 ft 12 kts 83°
2026-05-08 06:37 33.93926 -118.39566 120 ft 13 kts 83°
2026-05-08 06:37 33.93938 -118.39451 124 ft 14 kts 82°
2026-05-08 06:37 33.93946 -118.39369 125 ft 15 kts 84°
2026-05-08 06:38 33.93962 -118.39196 123 ft 16 kts 83°
2026-05-08 06:38 33.93971 -118.39104 123 ft 17 kts 83°
2026-05-08 06:38 33.93985 -118.38963 123 ft 17 kts 83°
2026-05-08 06:38 33.93999 -118.38815 122 ft 18 kts 83°
2026-05-08 06:39 33.94014 -118.38661 122 ft 19 kts 83°
2026-05-08 06:39 33.94032 -118.38505 124 ft 19 kts 82°
2026-05-08 06:39 33.94049 -118.38344 125 ft 19 kts 83°
2026-05-08 06:39 33.94066 -118.38181 124 ft 19 kts 83°
2026-05-08 06:40 33.94076 -118.38075 124 ft 8 kts 85°
2026-05-08 06:40 33.94067 -118.38031 121 ft 4 kts 121°
2026-05-08 06:40 33.94041 -118.38008 123 ft 6 kts 159°
2026-05-08 06:40 33.93998 -118.38014 121 ft 6 kts 216°
2026-05-08 06:41 33.93982 -118.38070 121 ft 15 kts 258°
2026-05-08 06:41 33.93932 -118.38526 125 ft 94 kts 263°
2026-05-08 06:41 33.93820 -118.39602 123 ft 160 kts 262°
2026-05-08 06:41 33.93661 -118.41074 479 ft 183 kts 263°
2026-05-08 06:42 33.93557 -118.42703 969 ft 213 kts 264°
2026-05-08 06:42 33.93372 -118.44605 1532 ft 236 kts 262°
2026-05-08 06:42 33.93157 -118.46602 2340 ft 246 kts 263°
2026-05-08 06:42 33.92960 -118.48703 2757 ft 263 kts 264°
2026-05-08 06:43 33.92768 -118.50926 3422 ft 267 kts 265°
2026-05-08 06:43 33.92582 -118.53143 4216 ft 267 kts 266°
2026-05-08 06:43 33.92396 -118.55385 4951 ft 270 kts 267°
2026-05-08 06:43 33.92210 -118.57641 5687 ft 271 kts 266°
2026-05-08 06:44 33.92032 -118.59911 6425 ft 272 kts 270°
2026-05-08 06:44 33.92371 -118.62103 7044 ft 272 kts 297°
2026-05-08 06:44 33.93538 -118.63899 7657 ft 275 kts 321°
2026-05-08 06:44 33.95163 -118.65147 7975 ft 279 kts 331°
2026-05-08 06:45 33.96861 -118.66235 7985 ft 279 kts 332°
2026-05-08 06:45 33.98601 -118.67307 7985 ft 280 kts 338°
2026-05-08 06:45 34.00510 -118.67702 8006 ft 281 kts
2026-05-08 06:45 34.02472 -118.67580 8001 ft 283 kts
2026-05-08 06:46 34.04430 -118.67431 7999 ft 284 kts
2026-05-08 06:46 34.06411 -118.67289 8001 ft 286 kts
2026-05-08 06:46 34.08407 -118.67112 8027 ft 287 kts
2026-05-08 06:46 34.10379 -118.66676 8502 ft 288 kts 11°
2026-05-08 06:47 34.12331 -118.66176 9228 ft 289 kts 11°
2026-05-08 06:47 34.14313 -118.65671 9902 ft 292 kts 11°
2026-05-08 06:47 34.16336 -118.65168 10357 ft 304 kts 11°
2026-05-08 06:47 34.18462 -118.64655 10498 ft 324 kts 11°
2026-05-08 06:48 34.20744 -118.64112 10644 ft 344 kts 11°
2026-05-08 06:48 34.23154 -118.63542 10875 ft 358 kts 10°
2026-05-08 06:48 34.25656 -118.63407 11301 ft 363 kts 351°
2026-05-08 06:48 34.28103 -118.64000 11910 ft 364 kts 348°
2026-05-08 06:49 34.30598 -118.64616 12439 ft 367 kts 349°
2026-05-08 06:49 34.33112 -118.65308 12941 ft 372 kts 342°
2026-05-08 06:49 34.35540 -118.66445 13474 ft 376 kts 338°
2026-05-08 06:49 34.37929 -118.67695 13979 ft 380 kts 337°
2026-05-08 06:50 34.40354 -118.68991 14450 ft 382 kts 337°
2026-05-08 06:50 34.42801 -118.70295 14965 ft 384 kts 337°
2026-05-08 06:50 34.45263 -118.71595 15489 ft 386 kts 337°
2026-05-08 06:50 34.47708 -118.72873 15993 ft 388 kts 338°
2026-05-08 06:51 34.50204 -118.74171 16505 ft 389 kts 338°
2026-05-08 06:51 34.52708 -118.75467 17008 ft 392 kts 338°
2026-05-08 06:51 34.55230 -118.76770 17502 ft 394 kts 338°
2026-05-08 06:51 34.57735 -118.78063 17983 ft 396 kts 338°
2026-05-08 06:52 34.60282 -118.79377 18463 ft 399 kts 338°
2026-05-08 06:52 34.62857 -118.80707 18865 ft 401 kts 338°
2026-05-08 06:52 34.65430 -118.82035 19309 ft 402 kts 338°
2026-05-08 06:52 34.68023 -118.83376 19723 ft 405 kts 337°
2026-05-08 06:53 34.70603 -118.84713 20035 ft 410 kts 338°
2026-05-08 06:53 34.73226 -118.86073 20549 ft 408 kts 338°
2026-05-08 06:53 34.75856 -118.87436 20940 ft 412 kts 338°
2026-05-08 06:53 34.78507 -118.88812 21308 ft 415 kts 338°
2026-05-08 06:54 34.81158 -118.90187 21665 ft 418 kts 338°
2026-05-08 06:54 34.83849 -118.91585 22147 ft 418 kts 338°
2026-05-08 06:54 34.86503 -118.92965 22477 ft 421 kts 338°
2026-05-08 06:54 34.89215 -118.94373 22803 ft 425 kts 338°
2026-05-08 06:55 34.91940 -118.95792 23250 ft 425 kts 338°
2026-05-08 06:55 34.94683 -118.97223 23498 ft 431 kts 338°
2026-05-08 06:55 34.97447 -118.98665 23828 ft 432 kts 338°
2026-05-08 06:55 35.00222 -119.00113 24135 ft 434 kts 338°
2026-05-08 06:56 35.02969 -119.01547 24462 ft 435 kts 337°
2026-05-08 06:56 35.05778 -119.03015 24731 ft 438 kts 338°
2026-05-08 06:56 35.08589 -119.04485 25050 ft 440 kts 337°
2026-05-08 06:56 35.11386 -119.05948 25342 ft 442 kts 337°
2026-05-08 06:57 35.14225 -119.07435 25615 ft 444 kts 338°
2026-05-08 06:57 35.17074 -119.08928 25899 ft 446 kts 337°
2026-05-08 06:57 35.19934 -119.10428 26189 ft 448 kts 337°
2026-05-08 06:57 35.22818 -119.11942 26463 ft 451 kts 337°
2026-05-08 06:58 35.25713 -119.13464 26752 ft 452 kts 337°
2026-05-08 06:58 35.28594 -119.14979 27043 ft 454 kts 337°
2026-05-08 06:58 35.31511 -119.16514 27323 ft 456 kts 337°
2026-05-08 06:58 35.34435 -119.18055 27600 ft 458 kts 337°
2026-05-08 06:59 35.37364 -119.19600 27890 ft 459 kts 337°
2026-05-08 06:59 35.40279 -119.21138 28333 ft 457 kts 337°
2026-05-08 06:59 35.43198 -119.22678 28781 ft 455 kts 337°
2026-05-08 06:59 35.46127 -119.24055 29145 ft 455 kts 343°
2026-05-08 07:00 35.49214 -119.25051 29500 ft 455 kts 346°
2026-05-08 07:00 35.52275 -119.25933 29840 ft 456 kts 347°
2026-05-08 07:00 35.55381 -119.26801 30240 ft 455 kts 347°
2026-05-08 07:00 35.58462 -119.27667 30636 ft 452 kts 347°
2026-05-08 07:01 35.61526 -119.28544 31018 ft 450 kts 346°
2026-05-08 07:01 35.64539 -119.29423 31345 ft 449 kts 346°
2026-05-08 07:01 35.67587 -119.30324 31639 ft 449 kts 346°
2026-05-08 07:01 35.70638 -119.31235 31951 ft 448 kts 346°
2026-05-08 07:02 35.76715 -119.33060 32061 ft 454 kts 346°
2026-05-08 07:02 35.82894 -119.34920 32056 ft 460 kts 346°
2026-05-08 07:03 35.89158 -119.36808 32036 ft 465 kts 346°
2026-05-08 07:03 35.95463 -119.38710 32040 ft 466 kts 346°
2026-05-08 07:04 36.01745 -119.40607 32042 ft 467 kts 346°
2026-05-08 07:04 36.04914 -119.41566 32188 ft 468 kts 346°
2026-05-08 07:04 36.08040 -119.42512 32551 ft 465 kts 346°
2026-05-08 07:05 36.11185 -119.43465 32961 ft 461 kts 346°
2026-05-08 07:05 36.14302 -119.44410 33353 ft 458 kts 345°
2026-05-08 07:05 36.17361 -119.45338 33686 ft 456 kts 345°
2026-05-08 07:05 36.20451 -119.46277 33930 ft 455 kts 345°
2026-05-08 07:06 36.23522 -119.47210 34051 ft 455 kts 345°
2026-05-08 07:06 36.26619 -119.48153 34048 ft 457 kts 345°
2026-05-08 07:06 36.32788 -119.50032 34054 ft 456 kts 345°
2026-05-08 07:07 36.38940 -119.51909 34057 ft 455 kts 345°
2026-05-08 07:07 36.45090 -119.53788 34048 ft 454 kts 345°
2026-05-08 07:08 36.51182 -119.55652 34043 ft 453 kts 345°
2026-05-08 07:08 36.57317 -119.57534 34039 ft 453 kts 345°
2026-05-08 07:09 36.63454 -119.59419 34041 ft 454 kts 345°
2026-05-08 07:09 36.69597 -119.61309 34047 ft 455 kts 345°
2026-05-08 07:10 36.75778 -119.63213 34048 ft 456 kts 345°
2026-05-08 07:10 36.81932 -119.65112 34047 ft 457 kts 345°
2026-05-08 07:11 36.88099 -119.67018 34049 ft 458 kts 345°
2026-05-08 07:11 36.94297 -119.68937 34042 ft 459 kts 345°
2026-05-08 07:12 37.00509 -119.70864 34042 ft 459 kts 345°
2026-05-08 07:12 37.06727 -119.72796 34040 ft 459 kts 345°
2026-05-08 07:13 37.12926 -119.74725 34044 ft 459 kts 345°
2026-05-08 07:13 37.19086 -119.76645 34037 ft 458 kts 345°
2026-05-08 07:14 37.25297 -119.78585 34038 ft 458 kts 345°
2026-05-08 07:14 37.31476 -119.80518 34048 ft 457 kts 345°
2026-05-08 07:15 37.37620 -119.82442 34063 ft 456 kts 345°
2026-05-08 07:15 37.43789 -119.84379 34038 ft 456 kts 345°
2026-05-08 07:16 37.49904 -119.86301 34046 ft 455 kts 345°
2026-05-08 07:16 37.56059 -119.88240 34055 ft 455 kts 345°
2026-05-08 07:17 37.62216 -119.90182 34056 ft 455 kts 345°
2026-05-08 07:17 37.68373 -119.92128 34068 ft 456 kts 345°
2026-05-08 07:18 37.74491 -119.94065 34064 ft 456 kts 345°
2026-05-08 07:18 37.80662 -119.96022 34055 ft 456 kts 345°
2026-05-08 07:19 37.86790 -119.97968 34071 ft 456 kts 345°
2026-05-08 07:19 37.92953 -119.99929 34061 ft 456 kts 345°
2026-05-08 07:20 37.99118 -120.01895 34070 ft 457 kts 345°
2026-05-08 07:20 38.05294 -120.03868 34063 ft 457 kts 345°
2026-05-08 07:21 38.11440 -120.05835 34065 ft 456 kts 345°
2026-05-08 07:21 38.17600 -120.07811 34076 ft 456 kts 345°
2026-05-08 07:22 38.23736 -120.09781 34089 ft 456 kts 344°
2026-05-08 07:22 38.29829 -120.12047 34108 ft 455 kts 341°
2026-05-08 07:23 38.35838 -120.14479 34110 ft 454 kts 341°
2026-05-08 07:23 38.40859 -120.16504 34111 ft 454 kts 341°
2026-05-08 07:24 38.46868 -120.18897 34128 ft 453 kts 341°
2026-05-08 07:24 38.52887 -120.21277 34137 ft 452 kts 341°
2026-05-08 07:25 38.58884 -120.23648 34145 ft 452 kts 341°
2026-05-08 07:26 38.67881 -120.27213 34154 ft 451 kts 341°
2026-05-08 07:26 38.73898 -120.29604 34137 ft 452 kts 341°
2026-05-08 07:27 38.79878 -120.31984 34133 ft 452 kts 341°
2026-05-08 07:27 38.85906 -120.34388 34133 ft 452 kts 341°
2026-05-08 07:28 38.91924 -120.36792 34134 ft 452 kts 341°
2026-05-08 07:28 38.97911 -120.39187 34132 ft 453 kts 341°
2026-05-08 07:29 39.03954 -120.41611 34136 ft 453 kts 341°
2026-05-08 07:29 39.09958 -120.44021 34150 ft 453 kts 341°
2026-05-08 07:30 39.15963 -120.46436 34177 ft 452 kts 341°
2026-05-08 07:30 39.21942 -120.48846 34207 ft 452 kts 341°
2026-05-08 07:31 39.27935 -120.51266 34213 ft 451 kts 341°
2026-05-08 07:31 39.33934 -120.53692 34214 ft 451 kts 341°
2026-05-08 07:32 39.39901 -120.56110 34094 ft 450 kts 341°
2026-05-08 07:32 39.45857 -120.58528 34092 ft 450 kts 341°
2026-05-08 07:33 39.51850 -120.60965 34089 ft 451 kts 341°
2026-05-08 07:33 39.57827 -120.63401 34097 ft 451 kts 341°
2026-05-08 07:34 39.63806 -120.65840 34094 ft 451 kts 341°
2026-05-08 07:34 39.69810 -120.68296 34097 ft 451 kts 341°
2026-05-08 07:35 39.75794 -120.70747 34097 ft 452 kts 341°
2026-05-08 07:35 39.81761 -120.73195 34105 ft 453 kts 341°
2026-05-08 07:36 39.87785 -120.75672 34110 ft 454 kts 341°
2026-05-08 07:36 39.93821 -120.78158 34115 ft 454 kts 341°
2026-05-08 07:37 39.99854 -120.80648 34105 ft 455 kts 341°
2026-05-08 07:37 40.05876 -120.83137 34106 ft 456 kts 341°
2026-05-08 07:38 40.11902 -120.85634 34121 ft 456 kts 341°
2026-05-08 07:38 40.17950 -120.88143 34121 ft 456 kts 341°
2026-05-08 07:39 40.23986 -120.90651 34126 ft 456 kts 341°
2026-05-08 07:39 40.30049 -120.93177 34123 ft 455 kts 341°
2026-05-08 07:40 40.36073 -120.95691 34094 ft 455 kts 341°
2026-05-08 07:40 40.42072 -120.98200 34105 ft 454 kts 342°
2026-05-08 07:41 40.48094 -121.00722 34099 ft 454 kts 341°
2026-05-08 07:41 40.54120 -121.03250 34100 ft 453 kts 341°
2026-05-08 07:42 40.60136 -121.05780 34103 ft 453 kts 342°
2026-05-08 07:42 40.66116 -121.08299 34102 ft 453 kts 342°
2026-05-08 07:43 40.72107 -121.10828 34097 ft 453 kts 342°
2026-05-08 07:43 40.78115 -121.13368 34100 ft 453 kts 341°
2026-05-08 07:44 40.84119 -121.15912 34099 ft 453 kts 341°
2026-05-08 07:44 40.90110 -121.18455 34093 ft 453 kts 341°
2026-05-08 07:45 40.96105 -121.21004 34104 ft 453 kts 341°
2026-05-08 07:45 41.02126 -121.23569 34094 ft 453 kts 341°
2026-05-08 07:46 41.08102 -121.26121 34093 ft 453 kts 341°
2026-05-08 07:46 41.14109 -121.28691 34093 ft 453 kts 341°
2026-05-08 07:47 41.20119 -121.31266 34097 ft 452 kts 341°
2026-05-08 07:47 41.26079 -121.33825 34091 ft 452 kts 341°
2026-05-08 07:48 41.32065 -121.36400 34092 ft 451 kts 341°
2026-05-08 07:48 41.37998 -121.38957 34097 ft 450 kts 341°
2026-05-08 07:49 41.43972 -121.41537 34101 ft 449 kts 341°
2026-05-08 07:49 41.49880 -121.44094 34102 ft 448 kts 341°
2026-05-08 07:50 41.55791 -121.46656 34104 ft 447 kts 341°
2026-05-08 07:50 41.61731 -121.49237 34102 ft 447 kts 341°
2026-05-08 07:51 41.67645 -121.51811 34109 ft 447 kts 341°
2026-05-08 07:51 41.73579 -121.54399 34123 ft 448 kts 340°
2026-05-08 07:52 41.79496 -121.56984 34114 ft 449 kts 340°
2026-05-08 07:52 41.85447 -121.59589 34134 ft 449 kts 340°
2026-05-08 07:53 41.91365 -121.62186 34148 ft 449 kts 340°
2026-05-08 07:53 41.97324 -121.64806 34150 ft 450 kts 340°
2026-05-08 07:54 42.03263 -121.67422 34165 ft 450 kts 340°
2026-05-08 07:54 42.09249 -121.70066 34167 ft 451 kts 340°
2026-05-08 07:55 42.15174 -121.72685 34166 ft 451 kts 340°
2026-05-08 07:55 42.21099 -121.75515 34113 ft 451 kts 338°
2026-05-08 07:56 42.26956 -121.78475 34120 ft 451 kts 338°
2026-05-08 07:56 42.32856 -121.81455 34111 ft 451 kts 338°
2026-05-08 07:57 42.38721 -121.84399 34102 ft 451 kts 338°
2026-05-08 07:57 42.44620 -121.87353 34109 ft 450 kts 338°
2026-05-08 07:58 42.50478 -121.90291 34104 ft 450 kts 338°
2026-05-08 07:58 42.56347 -121.93240 34102 ft 450 kts 338°
2026-05-08 07:59 42.62236 -121.96206 34096 ft 450 kts 338°
2026-05-08 07:59 42.68087 -121.99159 34105 ft 450 kts 338°
2026-05-08 08:00 42.73968 -122.02133 34097 ft 450 kts 338°
2026-05-08 08:00 42.79833 -122.05105 34105 ft 450 kts 338°
2026-05-08 08:01 42.85688 -122.08077 34087 ft 451 kts 338°
2026-05-08 08:01 42.91545 -122.11058 34091 ft 451 kts 337°
2026-05-08 08:02 42.97448 -122.14070 34094 ft 452 kts 337°
2026-05-08 08:02 43.03312 -122.17066 34090 ft 453 kts 337°
2026-05-08 08:03 43.09232 -122.20096 34093 ft 454 kts 337°
2026-05-08 08:03 43.15164 -122.23140 34099 ft 454 kts 337°
2026-05-08 08:04 43.21068 -122.26175 34103 ft 455 kts 337°
2026-05-08 08:04 43.27015 -122.29237 34104 ft 455 kts 336°
2026-05-08 08:05 43.32930 -122.32292 34108 ft 455 kts 336°
2026-05-08 08:05 43.38839 -122.35347 34108 ft 454 kts 336°
2026-05-08 08:06 43.44754 -122.38411 34121 ft 453 kts 336°
2026-05-08 08:06 43.50635 -122.41469 34104 ft 453 kts 336°
2026-05-08 08:07 43.56543 -122.44547 34110 ft 453 kts 336°
2026-05-08 08:07 43.62407 -122.47605 34101 ft 453 kts 336°
2026-05-08 08:08 43.68308 -122.50690 34104 ft 453 kts 336°
2026-05-08 08:08 43.74174 -122.53766 33912 ft 456 kts 336°
2026-05-08 08:08 43.77183 -122.55344 33191 ft 463 kts 336°
2026-05-08 08:09 43.80192 -122.56922 32617 ft 461 kts 336°
2026-05-08 08:09 43.83178 -122.58489 32091 ft 457 kts 336°
2026-05-08 08:09 43.86148 -122.60051 31550 ft 453 kts 336°
2026-05-08 08:09 43.89090 -122.61596 31028 ft 449 kts 336°
2026-05-08 08:10 43.92006 -122.63136 30512 ft 446 kts 336°
2026-05-08 08:10 43.94868 -122.64651 29969 ft 443 kts 336°
2026-05-08 08:10 43.97750 -122.66177 29382 ft 439 kts 336°
2026-05-08 08:10 44.00600 -122.67687 28839 ft 434 kts 336°
2026-05-08 08:11 44.03385 -122.69164 28210 ft 432 kts 335°
2026-05-08 08:11 44.06203 -122.70660 27569 ft 431 kts 335°
2026-05-08 08:11 44.09004 -122.72148 26945 ft 430 kts 335°
2026-05-08 08:11 44.11767 -122.73616 26347 ft 428 kts 335°
2026-05-08 08:12 44.14581 -122.74977 25744 ft 430 kts 343°
2026-05-08 08:12 44.17600 -122.75246 25148 ft 437 kts
2026-05-08 08:12 44.20633 -122.74907 24597 ft 436 kts
2026-05-08 08:12 44.23651 -122.74549 24024 ft 434 kts
2026-05-08 08:13 44.26645 -122.74202 23400 ft 425 kts
2026-05-08 08:13 44.29530 -122.73886 22753 ft 416 kts
2026-05-08 08:13 44.32395 -122.73588 22173 ft 406 kts
2026-05-08 08:13 44.34242 -122.73401 22058 ft 398 kts
2026-05-08 08:14 44.36992 -122.73128 21798 ft 391 kts 359°
2026-05-08 08:14 44.40573 -122.72779 21469 ft 389 kts 360°
2026-05-08 08:14 44.42380 -122.72604 21312 ft 392 kts 360°
2026-05-08 08:14 44.45127 -122.72337 21008 ft 395 kts 360°
2026-05-08 08:15 44.48750 -122.71979 20433 ft 391 kts
2026-05-08 08:15 44.50583 -122.71797 20121 ft 389 kts
2026-05-08 08:15 44.53255 -122.71532 19680 ft 387 kts
2026-05-08 08:15 44.55938 -122.71265 19400 ft 380 kts
2026-05-08 08:16 44.58535 -122.71004 19219 ft 370 kts
2026-05-08 08:16 44.61074 -122.70750 18805 ft 369 kts
2026-05-08 08:16 44.63634 -122.70493 18403 ft 368 kts
2026-05-08 08:16 44.66191 -122.70237 17922 ft 367 kts
2026-05-08 08:17 44.68731 -122.69982 17454 ft 365 kts
2026-05-08 08:17 44.71268 -122.69728 16984 ft 364 kts
2026-05-08 08:17 44.73756 -122.69479 16563 ft 361 kts
2026-05-08 08:17 44.76243 -122.69227 16130 ft 354 kts